| time (UTC) | temp F | wind direction | speed MPH | gust MPH | rain 1hr in | rain 24hr in | rain mn in | humidity % | barometer mb |
| 20260831095052 | 76 | 247 | 2.0 | 4.0 | 0.00 | 0.00 | 0.00 | 27 | 1011.2 |
| 20260831094552 | 77 | 247 | 2.0 | 4.0 | 0.00 | 0.00 | 0.00 | 27 | 1011.3 |
| 20260831094052 | 77 | 246 | 1.0 | 4.0 | 0.00 | 0.00 | 0.00 | 26 | 1011.3 |
| 20260831093052 | 77 | 248 | 1.0 | 3.0 | 0.00 | 0.00 | 0.00 | 26 | 1011.3 |
| 20260831092552 | 77 | 249 | 2.0 | 3.0 | 0.00 | 0.00 | 0.00 | 26 | 1011.3 |
| 20260831092052 | 77 | 249 | 1.0 | 2.0 | 0.00 | 0.00 | 0.00 | 26 | 1011.2 |
| 20260831091552 | 78 | 249 | 0.0 | 2.0 | 0.00 | 0.00 | 0.00 | 26 | 1011.2 |
| 20260831091052 | 78 | 248 | 0.0 | 2.0 | 0.00 | 0.00 | 0.00 | 26 | 1011.2 |
| 20260831090552 | 78 | 248 | 1.0 | 3.0 | 0.00 | 0.00 | 0.00 | 25 | 1011.3 |
| 20260831090052 | 78 | 249 | 1.0 | 4.0 | 0.00 | 0.00 | 0.00 | 25 | 1011.3 |
| 20260831085552 | 78 | 248 | 3.0 | 4.0 | 0.00 | 0.00 | 0.00 | 24 | 1011.2 |
| 20260831084552 | 79 | 249 | 3.0 | 6.0 | 0.00 | 0.00 | 0.00 | 24 | 1011.4 |
| 20260831084052 | 79 | 255 | 5.0 | 5.0 | 0.00 | 0.00 | 0.00 | 23 | 1011.4 |
| 20260831083552 | 79 | 294 | 2.0 | 3.0 | 0.00 | 0.00 | 0.00 | 23 | 1011.4 |
| 20260831083052 | 79 | 294 | 2.0 | 3.0 | 0.00 | 0.00 | 0.00 | 23 | 1011.3 |
| 20260831082552 | 80 | 294 | 2.0 | 3.0 | 0.00 | 0.00 | 0.00 | 23 | 1011.4 |
| 20260831081552 | 80 | 294 | 1.0 | 5.0 | 0.00 | 0.00 | 0.00 | 23 | 1011.4 |
| 20260831080552 | 80 | 278 | 1.0 | 5.0 | 0.00 | 0.00 | 0.00 | 22 | 1011.4 |
| 20260831074552 | 80 | 264 | 6.0 | 6.0 | 0.00 | 0.00 | 0.00 | 22 | 1011.3 |
| 20260831074052 | 80 | 270 | 5.0 | 5.0 | 0.00 | 0.00 | 0.00 | 22 | 1011.3 |
| 20260831073552 | 81 | 280 | 2.0 | 5.0 | 0.00 | 0.00 | 0.00 | 22 | 1011.6 |
| 20260831073052 | 81 | 257 | 4.0 | 5.0 | 0.00 | 0.00 | 0.00 | 22 | 1011.7 |
| 20260831071552 | 81 | 329 | 4.0 | 5.0 | 0.00 | 0.00 | 0.00 | 21 | 1011.5 |
| 20260831071051 | 82 | 333 | 1.0 | 6.0 | 0.00 | 0.00 | 0.00 | 21 | 1011.6 |
| 20260831065552 | 82 | 263 | 1.0 | 4.0 | 0.00 | 0.00 | 0.00 | 22 | 1011.8 |
| 20260831065051 | 82 | 262 | 0.0 | 4.0 | 0.00 | 0.00 | 0.00 | 21 | 1011.7 |
| 20260831064552 | 83 | 254 | 0.0 | 4.0 | 0.00 | 0.00 | 0.00 | 21 | 1011.7 |
| 20260831063552 | 83 | 248 | 2.0 | 4.0 | 0.00 | 0.00 | 0.00 | 21 | 1011.8 |
| 20260831063052 | 83 | 246 | 0.0 | 5.0 | 0.00 | 0.00 | 0.00 | 21 | 1011.8 |
| 20260831062552 | 83 | 246 | 2.0 | 5.0 | 0.00 | 0.00 | 0.00 | 21 | 1011.7 |
| 20260831062052 | 83 | 250 | 3.0 | 6.0 | 0.00 | 0.00 | 0.00 | 21 | 1011.6 |
| 20260831061552 | 83 | 259 | 3.0 | 6.0 | 0.00 | 0.00 | 0.00 | 22 | 1011.4 |
| 20260831061051 | 83 | 222 | 2.0 | 4.0 | 0.00 | 0.00 | 0.00 | 22 | 1011.5 |
| 20260831060552 | 83 | 263 | 3.0 | 5.0 | 0.00 | 0.00 | 0.00 | 22 | 1011.5 |
| 20260831060052 | 83 | 266 | 3.0 | 5.0 | 0.00 | 0.00 | 0.00 | 22 | 1011.5 |
| 20260831055552 | 83 | 270 | 3.0 | 5.0 | 0.00 | 0.00 | 0.00 | 21 | 1011.4 |
| 20260831055052 | 83 | 291 | 2.0 | 4.0 | 0.00 | 0.00 | 0.00 | 21 | 1011.3 |
| 20260831054552 | 84 | 281 | 2.0 | 4.0 | 0.00 | 0.00 | 0.00 | 21 | 1011.4 |
| 20260831053552 | 84 | 271 | 1.0 | 4.0 | 0.00 | 0.00 | 0.00 | 21 | 1011.3 |
| 20260831053051 | 84 | 279 | 1.0 | 3.0 | 0.00 | 0.00 | 0.00 | 20 | 1011.4 |
| 20260831052552 | 84 | 279 | 3.0 | 3.0 | 0.00 | 0.00 | 0.00 | 20 | 1011.5 |
| 20260831052052 | 84 | 279 | 0.0 | 2.0 | 0.00 | 0.00 | 0.00 | 20 | 1011.6 |
| 20260831051051 | 85 | 279 | 0.0 | 4.0 | 0.00 | 0.00 | 0.00 | 20 | 1011.2 |
| 20260831050551 | 85 | 273 | 1.0 | 4.0 | 0.00 | 0.00 | 0.00 | 19 | 1011.3 |
| 20260831050052 | 85 | 280 | 2.0 | 4.0 | 0.00 | 0.00 | 0.00 | 19 | 1011.5 |
| 20260831045551 | 85 | 360 | 1.0 | 2.0 | 0.00 | 0.00 | 0.00 | 20 | 1011.2 |
| 20260831045051 | 85 | 360 | 1.0 | 3.0 | 0.00 | 0.00 | 0.00 | 19 | 1011.3 |
| 20260831044552 | 85 | 360 | 1.0 | 5.0 | 0.00 | 0.00 | 0.00 | 19 | 1011.3 |
| 20260831044051 | 85 | 360 | 3.0 | 5.0 | 0.00 | 0.00 | 0.00 | 19 | 1011.1 |
| 20260831043052 | 86 | 298 | 4.0 | 5.0 | 0.00 | 0.00 | 0.00 | 20 | 1011.4 |
| 20260831042551 | 86 | 270 | 1.0 | 3.0 | 0.00 | 0.00 | 0.00 | 20 | 1011.5 |
| 20260831042051 | 86 | 270 | 0.0 | 3.0 | 0.00 | 0.00 | 0.00 | 20 | 1011.4 |
| 20260831041552 | 86 | 270 | 2.0 | 4.0 | 0.00 | 0.00 | 0.00 | 20 | 1011.3 |
| 20260831041051 | 87 | 269 | 0.0 | 4.0 | 0.00 | 0.00 | 0.00 | 20 | 1011.4 |
| 20260831040552 | 87 | 252 | 0.0 | 0.0 | 0.00 | 0.00 | 0.00 | 20 | 1011.3 |
| 20260831040051 | 87 | 253 | 0.0 | 0.0 | 0.00 | 0.00 | 0.00 | 19 | 1011.3 |
| 20260831035551 | 87 | 360 | 0.0 | 0.0 | 0.00 | 0.00 | 0.00 | 19 | 1011.0 |
| 20260831035051 | 88 | 360 | 0.0 | 1.0 | 0.00 | 0.00 | 0.00 | 19 | 1011.1 |
| 20260831034552 | 88 | 360 | 0.0 | 2.0 | 0.00 | 0.00 | 0.00 | 19 | 1011.0 |
| 20260831034052 | 88 | 360 | 0.0 | 4.0 | 0.00 | 0.00 | 0.00 | 18 | 1010.8 |
| 20260831033552 | 88 | 360 | 0.0 | 4.0 | 0.00 | 0.00 | 0.00 | 18 | 1010.7 |
| 20260831033051 | 88 | 360 | 3.0 | 4.0 | 0.00 | 0.00 | 0.00 | 18 | 1010.5 |
| 20260831032551 | 88 | 360 | 1.0 | 3.0 | 0.00 | 0.00 | 0.00 | 18 | 1010.4 |
| 20260831032052 | 88 | 360 | 1.0 | 3.0 | 0.00 | 0.00 | 0.00 | 18 | 1010.3 |
| 20260831031551 | 89 | 360 | 2.0 | 3.0 | 0.00 | 0.00 | 0.00 | 18 | 1010.4 |
| 20260831031051 | 89 | 360 | 1.0 | 3.0 | 0.00 | 0.00 | 0.00 | 19 | 1010.3 |
| 20260831030051 | 90 | 360 | 1.0 | 1.0 | 0.00 | 0.00 | 0.00 | 18 | 1010.4 |
| 20260831025551 | 90 | 360 | 0.0 | 1.0 | 0.00 | 0.00 | 0.00 | 19 | 1010.3 |
| 20260831025052 | 90 | 360 | 0.0 | 2.0 | 0.00 | 0.00 | 0.00 | 18 | 1010.0 |
| 20260831024552 | 91 | 360 | 0.0 | 2.0 | 0.00 | 0.00 | 0.00 | 18 | 1010.1 |
| 20260831023551 | 91 | 360 | 0.0 | 4.0 | 0.00 | 0.00 | 0.00 | 17 | 1010.1 |
| 20260831023052 | 91 | 360 | 2.0 | 4.0 | 0.00 | 0.00 | 0.00 | 17 | 1010.0 |
| 20260831021551 | 92 | 360 | 1.0 | 4.0 | 0.00 | 0.00 | 0.00 | 17 | 1010.0 |
| 20260831020552 | 93 | 360 | 2.0 | 5.0 | 0.00 | 0.00 | 0.00 | 17 | 1010.1 |
| 20260831020051 | 93 | 360 | 3.0 | 5.0 | 0.00 | 0.00 | 0.00 | 17 | 1010.2 |
| 20260831015051 | 93 | 360 | 0.0 | 4.0 | 0.00 | 0.00 | 0.00 | 17 | 1009.9 |
| 20260831014552 | 93 | 360 | 0.0 | 4.0 | 0.00 | 0.00 | 0.00 | 17 | 1010.0 |
| 20260831014051 | 93 | 360 | 0.0 | 3.0 | 0.00 | 0.00 | 0.00 | 16 | 1010.0 |
| 20260831013551 | 94 | 360 | 0.0 | 4.0 | 0.00 | 0.00 | 0.00 | 17 | 1010.3 |
| 20260831013051 | 94 | 360 | 0.0 | 7.0 | 0.00 | 0.00 | 0.00 | 17 | 1010.1 |
| 20260831012552 | 94 | 360 | 1.0 | 7.0 | 0.00 | 0.00 | 0.00 | 16 | 1010.1 |
| 20260831012051 | 94 | 360 | 3.0 | 5.0 | 0.00 | 0.00 | 0.00 | 16 | 1010.0 |
| 20260831011051 | 94 | 360 | 1.0 | 5.0 | 0.00 | 0.00 | 0.00 | 17 | 1010.2 |
| 20260831010051 | 94 | 360 | 1.0 | 5.0 | 0.00 | 0.00 | 0.00 | 16 | 1010.3 |
| 20260831005051 | 94 | 360 | 0.0 | 7.0 | 0.00 | 0.00 | 0.00 | 17 | 1010.3 |
| 20260831004552 | 94 | 360 | 5.0 | 9.0 | 0.00 | 0.00 | 0.00 | 17 | 1010.4 |
| 20260831004051 | 94 | 360 | 1.0 | 10.0 | 0.00 | 0.00 | 0.00 | 16 | 1010.5 |
| 20260831003051 | 94 | 360 | 0.0 | 11.0 | 0.00 | 0.00 | 0.00 | 17 | 1010.4 |
| 20260831002551 | 94 | 360 | 1.0 | 7.0 | 0.00 | 0.00 | 0.00 | 17 | 1010.3 |
| 20260831002051 | 94 | 360 | 0.0 | 8.0 | 0.00 | 0.00 | 0.00 | 17 | 1010.3 |
| 20260831001551 | 94 | 360 | 5.0 | 9.0 | 0.00 | 0.00 | 0.00 | 17 | 1010.5 |
| 20260830235551 | 94 | 360 | 5.0 | 15.0 | 0.00 | 0.00 | 0.00 | 16 | 1010.4 |
| 20260830235051 | 94 | 360 | 2.0 | 15.0 | 0.00 | 0.00 | 0.00 | 16 | 1010.8 |
| 20260830234551 | 95 | 360 | 9.0 | 13.0 | 0.00 | 0.00 | 0.00 | 16 | 1011.0 |
| 20260830234051 | 95 | 360 | 5.0 | 13.0 | 0.00 | 0.00 | 0.00 | 16 | 1011.1 |
| 20260830233551 | 95 | 360 | 4.0 | 13.0 | 0.00 | 0.00 | 0.00 | 16 | 1011.1 |
| 20260830232551 | 94 | 360 | 5.0 | 10.0 | 0.00 | 0.00 | 0.00 | 16 | 1010.9 |
| 20260830231551 | 95 | 360 | 5.0 | 11.0 | 0.00 | 0.00 | 0.00 | 16 | 1011.1 |
| 20260830230551 | 94 | 360 | 2.0 | 10.0 | 0.00 | 0.00 | 0.00 | 17 | 1011.1 |
| 20260830230051 | 94 | 360 | 4.0 | 12.0 | 0.00 | 0.00 | 0.00 | 16 | 1011.3 |
| 20260830225551 | 94 | 360 | 6.0 | 12.0 | 0.00 | 0.00 | 0.00 | 16 | 1011.4 |
| 20260830224551 | 95 | 360 | 4.0 | 13.0 | 0.00 | 0.00 | 0.00 | 17 | 1011.7 |
| 20260830224051 | 95 | 360 | 4.0 | 13.0 | 0.00 | 0.00 | 0.00 | 16 | 1011.7 |
| 20260830223551 | 95 | 360 | 4.0 | 12.0 | 0.00 | 0.00 | 0.00 | 16 | 1011.7 |
| 20260830223051 | 95 | 277 | 5.0 | 13.0 | 0.00 | 0.00 | 0.00 | 16 | 1011.7 |
| 20260830222551 | 94 | 360 | 7.0 | 13.0 | 0.00 | 0.00 | 0.00 | 17 | 1011.7 |
| 20260830221551 | 94 | 360 | 8.0 | 10.0 | 0.00 | 0.00 | 0.00 | 17 | 1011.6 |
| 20260830221051 | 94 | 360 | 3.0 | 10.0 | 0.00 | 0.00 | 0.00 | 17 | 1011.7 |
| 20260830220551 | 94 | 360 | 6.0 | 11.0 | 0.00 | 0.00 | 0.00 | 17 | 1011.7 |
| 20260830220051 | 94 | 360 | 5.0 | 11.0 | 0.00 | 0.00 | 0.00 | 17 | 1011.8 |
| 20260830215051 | 94 | 360 | 2.0 | 13.0 | 0.00 | 0.00 | 0.00 | 17 | 1011.8 |
| 20260830214551 | 94 | 360 | 3.0 | 13.0 | 0.00 | 0.00 | 0.00 | 17 | 1011.8 |
| 20260830213551 | 94 | 360 | 5.0 | 14.0 | 0.00 | 0.00 | 0.00 | 17 | 1012.0 |
| 20260830213051 | 94 | 360 | 6.0 | 14.0 | 0.00 | 0.00 | 0.00 | 16 | 1012.1 |
| 20260830212551 | 94 | 360 | 7.0 | 13.0 | 0.00 | 0.00 | 0.00 | 17 | 1012.1 |
| 20260830212051 | 94 | 360 | 13.0 | 13.0 | 0.00 | 0.00 | 0.00 | 16 | 1012.2 |
| 20260830211051 | 95 | 360 | 6.0 | 12.0 | 0.00 | 0.00 | 0.00 | 16 | 1012.4 |
| 20260830210551 | 94 | 231 | 5.0 | 7.0 | 0.00 | 0.00 | 0.00 | 16 | 1012.2 |
| 20260830210051 | 95 | 194 | 2.0 | 9.0 | 0.00 | 0.00 | 0.00 | 15 | 1012.3 |
| 20260830205051 | 95 | 192 | 3.0 | 7.0 | 0.00 | 0.00 | 0.00 | 15 | 1012.3 |
| 20260830204551 | 95 | 223 | 2.0 | 16.0 | 0.00 | 0.00 | 0.00 | 16 | 1012.5 |
| 20260830204051 | 95 | 193 | 7.0 | 16.0 | 0.00 | 0.00 | 0.00 | 16 | 1012.6 |
| 20260830203551 | 94 | 219 | 5.0 | 13.0 | 0.00 | 0.00 | 0.00 | 16 | 1012.2 |
| 20260830203051 | 94 | 100 | 6.0 | 13.0 | 0.00 | 0.00 | 0.00 | 16 | 1012.4 |
| 20260830202551 | 94 | 187 | 4.0 | 11.0 | 0.00 | 0.00 | 0.00 | 17 | 1012.4 |
| 20260830202051 | 94 | 199 | 5.0 | 11.0 | 0.00 | 0.00 | 0.00 | 16 | 1012.6 |
| 20260830201551 | 94 | 167 | 5.0 | 12.0 | 0.00 | 0.00 | 0.00 | 17 | 1012.5 |
| 20260830201051 | 95 | 165 | 5.0 | 14.0 | 0.00 | 0.00 | 0.00 | 16 | 1012.7 |
| 20260830200551 | 95 | 181 | 5.0 | 14.0 | 0.00 | 0.00 | 0.00 | 16 | 1012.7 |
| 20260830200051 | 95 | 190 | 10.0 | 15.0 | 0.00 | 0.00 | 0.00 | 16 | 1012.6 |
| 20260830195551 | 96 | 186 | 9.0 | 15.0 | 0.00 | 0.00 | 0.00 | 16 | 1012.8 |
| 20260830195051 | 96 | 154 | 4.0 | 14.0 | 0.00 | 0.00 | 0.00 | 16 | 1012.7 |
| 20260830194551 | 97 | 165 | 4.0 | 14.0 | 0.00 | 0.00 | 0.00 | 15 | 1012.8 |
| 20260830194051 | 98 | 167 | 7.0 | 12.0 | 0.00 | 0.00 | 0.00 | 15 | 1012.8 |
| 20260830193621 | 98 | 158 | 4.0 | 15.0 | 0.00 | 0.00 | 0.00 | 15 | 1012.9 |
| 20260830193102 | 97 | 177 | 5.0 | 15.0 | 0.00 | 0.00 | 0.00 | 15 | 1013.0 |
| 20260830192101 | 97 | 138 | 5.0 | 14.0 | 0.00 | 0.00 | 0.00 | 15 | 1013.2 |
| 20260830191531 | 97 | 139 | 1.0 | 14.0 | 0.00 | 0.00 | 0.00 | 15 | 1013.2 |
| 20260830191101 | 99 | 158 | 5.0 | 10.0 | 0.00 | 0.00 | 0.00 | 15 | 1013.5 |
| 20260830190601 | 99 | 180 | 10.0 | 15.0 | 0.00 | 0.00 | 0.00 | 15 | 1013.3 |
| 20260830185531 | 98 | 164 | 6.0 | 18.0 | 0.00 | 0.00 | 0.00 | 15 | 1013.4 |
| 20260830185032 | 99 | 182 | 7.0 | 12.0 | 0.00 | 0.00 | 0.00 | 15 | 1013.4 |
| 20260830184601 | 99 | 188 | 2.0 | 12.0 | 0.00 | 0.00 | 0.00 | 15 | 1013.4 |
| 20260830183601 | 98 | 199 | 6.0 | 11.0 | 0.00 | 0.00 | 0.00 | 15 | 1013.5 |
| 20260830183032 | 97 | 197 | 7.0 | 12.0 | 0.00 | 0.00 | 0.00 | 15 | 1013.3 |
| 20260830182531 | 97 | 202 | 7.0 | 14.0 | 0.00 | 0.00 | 0.00 | 15 | 1013.3 |
| 20260830182101 | 97 | 202 | 7.0 | 18.0 | 0.00 | 0.00 | 0.00 | 15 | 1013.3 |
| 20260830181032 | 96 | 148 | 6.0 | 16.0 | 0.00 | 0.00 | 0.00 | 16 | 1013.3 |
| 20260830180532 | 96 | 110 | 8.0 | 11.0 | 0.00 | 0.00 | 0.00 | 16 | 1013.4 |
| 20260830175531 | 95 | 215 | 3.0 | 13.0 | 0.00 | 0.00 | 0.00 | 16 | 1013.3 |
| 20260830175101 | 95 | 179 | 6.0 | 11.0 | 0.00 | 0.00 | 0.00 | 16 | 1013.2 |
| 20260830174601 | 95 | 173 | 2.0 | 9.0 | 0.00 | 0.00 | 0.00 | 16 | 1013.4 |
| 20260830173531 | 94 | 179 | 6.0 | 14.0 | 0.00 | 0.00 | 0.00 | 16 | 1013.1 |
| 20260830173031 | 95 | 142 | 6.0 | 14.0 | 0.00 | 0.00 | 0.00 | 17 | 1013.3 |
| 20260830172102 | 94 | 157 | 5.0 | 12.0 | 0.00 | 0.00 | 0.00 | 17 | 1012.9 |
| 20260830170532 | 93 | 165 | 6.0 | 18.0 | 0.00 | 0.00 | 0.00 | 17 | 1012.9 |
| 20260830170101 | 92 | 192 | 7.0 | 12.0 | 0.00 | 0.00 | 0.00 | 18 | 1012.8 |
| 20260830165531 | 92 | 174 | 4.0 | 12.0 | 0.00 | 0.00 | 0.00 | 18 | 1012.8 |
| 20260830165101 | 91 | 166 | 6.0 | 11.0 | 0.00 | 0.00 | 0.00 | 18 | 1012.7 |
| 20260830164531 | 91 | 153 | 2.0 | 11.0 | 0.00 | 0.00 | 0.00 | 18 | 1012.9 |
| 20260830163601 | 90 | 178 | 5.0 | 10.0 | 0.00 | 0.00 | 0.00 | 19 | 1012.5 |
| 20260830163101 | 90 | 182 | 4.0 | 10.0 | 0.00 | 0.00 | 0.00 | 19 | 1012.6 |
| 20260830162601 | 90 | 165 | 6.0 | 10.0 | 0.00 | 0.00 | 0.00 | 19 | 1012.6 |
| 20260830162101 | 90 | 149 | 4.0 | 11.0 | 0.00 | 0.00 | 0.00 | 19 | 1012.5 |
| 20260830161531 | 90 | 180 | 4.0 | 11.0 | 0.00 | 0.00 | 0.00 | 19 | 1012.5 |
| 20260830160601 | 90 | 151 | 3.0 | 10.0 | 0.00 | 0.00 | 0.00 | 19 | 1012.4 |
| 20260830155601 | 90 | 198 | 4.0 | 11.0 | 0.00 | 0.00 | 0.00 | 19 | 1012.6 |
| 20260830155031 | 89 | 186 | 5.0 | 14.0 | 0.00 | 0.00 | 0.00 | 20 | 1012.8 |
| 20260830154601 | 89 | 182 | 7.0 | 14.0 | 0.00 | 0.00 | 0.00 | 20 | 1012.7 |
| 20260830153531 | 89 | 186 | 4.0 | 9.0 | 0.00 | 0.00 | 0.00 | 20 | 1012.9 |
| 20260830153031 | 89 | 140 | 4.0 | 7.0 | 0.00 | 0.00 | 0.00 | 20 | 1012.7 |
| 20260830152601 | 89 | 121 | 2.0 | 7.0 | 0.00 | 0.00 | 0.00 | 20 | 1012.7 |
| 20260830151601 | 89 | 94 | 6.0 | 9.0 | 0.00 | 0.00 | 0.00 | 20 | 1012.6 |
| 20260830151031 | 89 | 119 | 4.0 | 9.0 | 0.00 | 0.00 | 0.00 | 21 | 1012.5 |
| 20260830150531 | 89 | 56 | 6.0 | 9.0 | 0.00 | 0.00 | 0.00 | 22 | 1012.5 |
| 20260830150101 | 88 | 94 | 6.0 | 9.0 | 0.00 | 0.00 | 0.00 | 21 | 1012.3 |
| 20260830145531 | 88 | 360 | 5.0 | 9.0 | 0.00 | 0.00 | 0.00 | 22 | 1012.5 |
| 20260830145101 | 88 | 360 | 4.0 | 8.0 | 0.00 | 0.00 | 0.00 | 22 | 1012.6 |
| 20260830144601 | 88 | 360 | 3.0 | 9.0 | 0.00 | 0.00 | 0.00 | 22 | 1012.5 |
| 20260830143031 | 87 | 360 | 2.0 | 11.0 | 0.00 | 0.00 | 0.00 | 23 | 1012.6 |
| 20260830142531 | 87 | 360 | 3.0 | 11.0 | 0.00 | 0.00 | 0.00 | 23 | 1012.6 |
| 20260830142031 | 87 | 360 | 4.0 | 12.0 | 0.00 | 0.00 | 0.00 | 24 | 1012.5 |
| 20260830141031 | 87 | 360 | 5.0 | 8.0 | 0.00 | 0.00 | 0.00 | 25 | 1012.4 |
| 20260830140531 | 86 | 360 | 5.0 | 8.0 | 0.00 | 0.00 | 0.00 | 24 | 1012.3 |
| 20260830140101 | 86 | 360 | 5.0 | 7.0 | 0.00 | 0.00 | 0.00 | 24 | 1012.3 |
| 20260830135531 | 85 | 69 | 4.0 | 10.0 | 0.00 | 0.00 | 0.00 | 24 | 1012.1 |
| 20260830135031 | 85 | 136 | 1.0 | 10.0 | 0.00 | 0.00 | 0.00 | 24 | 1012.1 |
| 20260830134531 | 85 | 140 | 2.0 | 9.0 | 0.00 | 0.00 | 0.00 | 26 | 1012.2 |
| 20260830134031 | 85 | 82 | 3.0 | 9.0 | 0.00 | 0.00 | 0.00 | 26 | 1012.0 |
| 20260830133601 | 85 | 77 | 3.0 | 7.0 | 0.00 | 0.00 | 0.00 | 26 | 1011.8 |
| 20260830133031 | 86 | 65 | 1.0 | 8.0 | 0.00 | 0.00 | 0.00 | 26 | 1011.9 |
| 20260830132601 | 86 | 103 | 2.0 | 8.0 | 0.00 | 0.00 | 0.00 | 26 | 1011.9 |
| 20260830131601 | 86 | 144 | 3.0 | 6.0 | 0.00 | 0.00 | 0.00 | 25 | 1011.6 |
| 20260830130601 | 86 | 126 | 5.0 | 11.0 | 0.00 | 0.00 | 0.00 | 25 | 1011.6 |
| 20260830130101 | 86 | 155 | 2.0 | 11.0 | 0.00 | 0.00 | 0.00 | 25 | 1011.5 |
| 20260830125031 | 86 | 107 | 7.0 | 10.0 | 0.00 | 0.00 | 0.00 | 25 | 1011.6 |
| 20260830124531 | 86 | 114 | 4.0 | 11.0 | 0.00 | 0.00 | 0.00 | 25 | 1011.6 |
| 20260830124031 | 86 | 113 | 8.0 | 11.0 | 0.00 | 0.00 | 0.00 | 25 | 1011.6 |
| 20260830123601 | 86 | 98 | 5.0 | 9.0 | 0.00 | 0.00 | 0.00 | 25 | 1011.5 |
| 20260830123031 | 86 | 84 | 5.0 | 7.0 | 0.00 | 0.00 | 0.00 | 25 | 1011.4 |
| 20260830122601 | 87 | 82 | 3.0 | 9.0 | 0.00 | 0.00 | 0.00 | 25 | 1011.3 |
| 20260830122101 | 87 | 121 | 1.0 | 9.0 | 0.00 | 0.00 | 0.00 | 25 | 1011.1 |
| 20260830121031 | 87 | 144 | 2.0 | 8.0 | 0.00 | 0.00 | 0.00 | 25 | 1011.0 |
| 20260830120601 | 87 | 116 | 1.0 | 5.0 | 0.00 | 0.00 | 0.00 | 25 | 1011.0 |
| 20260830120101 | 87 | 77 | 2.0 | 5.0 | 0.00 | 0.00 | 0.00 | 24 | 1010.9 |
| 20260830115601 | 87 | 138 | 1.0 | 4.0 | 0.00 | 0.00 | 0.00 | 23 | 1010.9 |
| 20260830115101 | 87 | 138 | 0.0 | 5.0 | 0.00 | 0.00 | 0.00 | 24 | 1010.8 |
| 20260830114531 | 87 | 138 | 1.0 | 8.0 | 0.00 | 0.00 | 0.00 | 23 | 1010.8 |
| 20260830114031 | 87 | 175 | 0.0 | 8.0 | 0.00 | 0.00 | 0.00 | 23 | 1010.9 |
| 20260830113531 | 87 | 128 | 8.0 | 9.0 | 0.00 | 0.00 | 0.00 | 24 | 1010.8 |
| 20260830113101 | 87 | 141 | 2.0 | 9.0 | 0.00 | 0.00 | 0.00 | 24 | 1010.9 |
| 20260830112531 | 88 | 150 | 3.0 | 8.0 | 0.00 | 0.00 | 0.00 | 24 | 1010.9 |
| 20260830112101 | 88 | 170 | 3.0 | 6.0 | 0.00 | 0.00 | 0.00 | 23 | 1011.1 |
| 20260830111600 | 88 | 159 | 2.0 | 8.0 | 0.00 | 0.00 | 0.00 | 23 | 1011.1 |
| 20260830110531 | 88 | 128 | 2.0 | 7.0 | 0.00 | 0.00 | 0.00 | 21 | 1010.9 |
| 20260830110100 | 89 | 173 | 3.0 | 7.0 | 0.00 | 0.00 | 0.00 | 21 | 1011.0 |
| 20260830105531 | 89 | 173 | 2.0 | 11.0 | 0.00 | 0.00 | 0.00 | 20 | 1011.0 |
| 20260830105031 | 89 | 198 | 7.0 | 11.0 | 0.00 | 0.00 | 0.00 | 20 | 1010.9 |
| 20260830104530 | 89 | 264 | 6.0 | 9.0 | 0.00 | 0.00 | 0.00 | 20 | 1010.7 |
| 20260830104031 | 89 | 211 | 6.0 | 10.0 | 0.00 | 0.00 | 0.00 | 20 | 1010.9 |
| 20260830103101 | 89 | 240 | 4.0 | 12.0 | 0.00 | 0.00 | 0.00 | 20 | 1010.8 |
| 20260830102531 | 89 | 253 | 2.0 | 13.0 | 0.00 | 0.00 | 0.00 | 20 | 1010.9 |
| 20260830102030 | 89 | 211 | 9.0 | 13.0 | 0.00 | 0.00 | 0.00 | 20 | 1010.9 |
| 20260830101531 | 89 | 238 | 0.0 | 9.0 | 0.00 | 0.00 | 0.00 | 20 | 1010.8 |
| 20260830101100 | 89 | 271 | 8.0 | 9.0 | 0.00 | 0.00 | 0.00 | 20 | 1010.7 |
| 20260830100600 | 89 | 153 | 4.0 | 5.0 | 0.00 | 0.00 | 0.00 | 20 | 1010.6 |
| 20260830100101 | 89 | 74 | 1.0 | 5.0 | 0.00 | 0.00 | 0.00 | 20 | 1010.7 |
| 20260830095531 | 89 | 41 | 2.0 | 8.0 | 0.00 | 0.00 | 0.00 | 20 | 1010.8 |